Location: Newark
(16.3678°N, 77.8722°E)
Time: 12:31:54
(UTC+00:00)

Courier 1B - Visible Passes

Search period start: 16 December 2019 00:00
Search period end: 26 December 2019 00:00
Orbit: 963 x 1209 km, 28.3° (Epoch: 15 December)

Date Brightness Start Highest point End Pass type
(mag) Time Alt. Az. Time Alt. Az. Time Alt. Az.
16 Dec 8.1 12:57:21 10° W 13:03:49 51° NNW 13:09:43 14° NE visible
16 Dec 9.1 14:52:45 10° WNW 14:56:37 27° NW 14:56:37 27° NW visible
16 Dec 10.0 22:39:24 12° SSW 22:39:24 12° SSW 22:40:51 10° S visible
17 Dec 8.5 13:58:39 10° WNW 14:04:44 34° N 14:06:13 31° NNE visible
17 Dec 10.3 21:48:56 10° S 21:48:56 10° S 21:48:58 10° S visible
18 Dec 8.5 13:04:33 10° WNW 13:10:39 37° NNW 13:15:50 15° NE visible
18 Dec 9.4 14:59:51 10° WNW 15:02:43 22° NW 15:02:43 22° NW visible
19 Dec 8.6 14:05:53 10° WNW 14:11:44 30° N 14:12:20 30° N visible
20 Dec 8.6 13:11:52 10° WNW 13:17:38 30° N 13:21:57 17° NE visible
20 Dec 9.5 15:06:40 10° NW 15:08:51 20° NW 15:08:51 20° NW visible
21 Dec 8.6 14:12:52 10° NW 14:18:30 31° N 14:18:30 31° N visible
22 Dec 8.6 13:19:00 10° WNW 13:24:40 29° N 13:28:12 19° NE visible
22 Dec 9.5 15:13:12 10° NW 15:15:06 19° NW 15:15:06 19° NW visible
23 Dec 8.4 14:19:33 10° NW 14:24:51 36° N 14:24:51 36° N visible
24 Dec 8.4 13:25:50 10° NW 13:31:39 32° N 13:34:38 23° NE visible
24 Dec 9.5 15:19:39 10° WNW 15:21:33 20° NW 15:21:33 20° NW visible
25 Dec 8.1 14:26:02 10° NW 14:31:26 46° N 14:31:26 46° N visible
